Location: Unspecified
(48.3403°N, 0.0000°E)
Time: 00:51:07
(UTC+00:00)

SIGI - Visible Passes

Search period start: 05 April 2026 00:00
Search period end: 15 April 2026 00:00
Orbit: 493 x 496 km, 97.4° (Epoch: 29 March)

Date Brightness Start Highest point End Pass type
(mag) Time Alt. Az. Time Alt. Az. Time Alt. Az.
5 Apr ? 22:13:08 20° N 22:13:08 20° N 22:14:22 10° N visible
6 Apr ? 21:51:24 21° NNE 21:51:24 21° NNE 21:52:48 10° N visible
7 Apr ? 21:29:38 18° NNE 21:29:38 18° NNE 21:31:01 10° NNE visible
7 Apr ? 23:04:11 13° NW 23:04:11 13° NW 23:04:44 10° NW visible
8 Apr ? 21:07:51 14° NE 21:07:51 14° NE 21:08:55 10° NNE visible
8 Apr ? 22:42:24 19° NNW 22:42:24 19° NNW 22:43:33 10° NNW visible
9 Apr ? 22:20:36 24° NNW 22:20:36 24° NNW 22:22:08 10° NNW visible
10 Apr ? 21:58:47 25° N 21:58:47 25° N 22:00:33 10° N visible
11 Apr ? 21:36:57 22° NNE 21:36:57 22° NNE 21:38:46 10° N visible
11 Apr ? 23:11:30 13° NW 23:11:30 13° NW 23:12:10 10° NW visible
12 Apr ? 21:15:06 17° NE 21:15:06 17° NE 21:16:43 10° NNE visible
12 Apr ? 22:49:38 20° NW 22:49:38 20° NW 22:51:00 10° NNW visible
13 Apr ? 20:53:13 11° NE 20:53:13 11° NE 20:54:01 10° NE visible
13 Apr ? 22:27:46 27° NNW 22:27:46 27° NNW 22:29:35 10° NNW visible
14 Apr ? 22:05:52 31° N 22:05:52 31° N 22:07:58 10° N visible
